| time (UTC) | temp C | wind direction | speed KPH | gust KPH | rain 1hr cm | rain 24hr cm | rain mn cm | humidity % | barometer mb |
| 20260506134548 | 7 | 274 | 9.7 | 19.3 | 0.00 | 0.00 | 0.00 | 62 | 1011.3 |
| 20260506133045 | 7 | 260 | 11.3 | 20.9 | 0.00 | 0.00 | 0.00 | 64 | 1011.4 |
| 20260506131557 | 7 | 275 | 11.3 | 25.7 | 0.00 | 0.00 | 0.00 | 63 | 1011.2 |
| 20260506130051 | 7 | 267 | 9.7 | 25.7 | 0.00 | 0.00 | 0.00 | 65 | 1011.2 |
| 20260506124542 | 7 | 280 | 11.3 | 24.1 | 0.00 | 0.00 | 0.00 | 66 | 1011.1 |
| 20260506123041 | 8 | 258 | 9.7 | 27.4 | 0.00 | 0.00 | 0.00 | 64 | 1011.1 |
| 20260506121538 | 7 | 324 | 9.7 | 20.9 | 0.00 | 0.00 | 0.00 | 64 | 1011.0 |
| 20260506120036 | 7 | 323 | 8.0 | 25.7 | 0.00 | 0.00 | 0.00 | 67 | 1011.0 |
| 20260506114534 | 7 | 316 | 9.7 | 29.0 | 0.00 | 0.00 | 0.00 | 66 | 1010.9 |
| 20260506113032 | 7 | 326 | 6.4 | 27.4 | 0.00 | 0.00 | 0.00 | 70 | 1010.8 |
| 20260506111530 | 7 | 260 | 12.9 | 22.5 | 0.00 | 0.00 | 0.00 | 69 | 1010.7 |
| 20260506110028 | 7 | 303 | 12.9 | 25.7 | 0.00 | 0.00 | 0.00 | 68 | 1010.5 |
| 20260506104624 | 5 | 330 | 9.7 | 25.7 | 0.00 | 0.00 | 0.00 | 76 | 1010.4 |
| 20260506103031 | 5 | 327 | 11.3 | 24.1 | 0.00 | 0.00 | 0.00 | 77 | 1010.3 |
| 20260506101516 | 5 | 293 | 9.7 | 22.5 | 0.00 | 0.00 | 0.00 | 77 | 1010.2 |
| 20260506100012 | 5 | 320 | 11.3 | 25.7 | 0.00 | 0.00 | 0.00 | 77 | 1010.1 |
| 20260506094507 | 5 | 315 | 11.3 | 27.4 | 0.00 | 0.00 | 0.00 | 77 | 1009.9 |
| 20260506093005 | 5 | 287 | 11.3 | 22.5 | 0.00 | 0.00 | 0.00 | 77 | 1009.7 |
| 20260506091559 | 5 | 321 | 11.3 | 19.3 | 0.00 | 0.00 | 0.00 | 78 | 1009.6 |
| 20260506090054 | 4 | 316 | 9.7 | 22.5 | 0.00 | 0.00 | 0.00 | 77 | 1009.4 |
| 20260506084550 | 4 | 298 | 9.7 | 22.5 | 0.00 | 0.00 | 0.00 | 76 | 1009.3 |
| 20260506083045 | 4 | 324 | 9.7 | 16.1 | 0.00 | 0.00 | 0.00 | 76 | 1009.1 |
| 20260506081543 | 4 | 315 | 9.7 | 20.9 | 0.00 | 0.00 | 0.00 | 78 | 1009.1 |
| 20260506073027 | 3 | 328 | 11.3 | 19.3 | 0.00 | 0.00 | 0.00 | 77 | 1008.5 |
| 20260506071524 | 3 | 237 | 9.7 | 19.3 | 0.00 | 0.00 | 0.00 | 78 | 1008.3 |
| 20260506061506 | 4 | 352 | 12.9 | 24.1 | 0.00 | 0.00 | 0.00 | 75 | 1007.9 |
| 20260506044610 | 3 | 316 | 24.1 | 35.4 | 0.00 | 0.00 | 0.00 | 76 | 1007.2 |
| 20260506043054 | 3 | 328 | 24.1 | 38.6 | 0.00 | 0.00 | 0.00 | 76 | 1007.0 |
| 20260506041551 | 3 | 337 | 24.1 | 37.0 | 0.00 | 0.00 | 0.00 | 75 | 1006.9 |
| 20260506040047 | 3 | 332 | 22.5 | 40.2 | 0.00 | 0.00 | 0.00 | 75 | 1006.8 |
| 20260506034545 | 3 | 335 | 22.5 | 40.2 | 0.00 | 0.00 | 0.00 | 75 | 1006.7 |
| 20260506033041 | 3 | 330 | 25.7 | 38.6 | 0.00 | 0.00 | 0.00 | 74 | 1006.4 |
| 20260506031541 | 3 | 317 | 22.5 | 38.6 | 0.00 | 0.00 | 0.00 | 75 | 1006.5 |
| 20260506030038 | 3 | 327 | 22.5 | 37.0 | 0.00 | 0.00 | 0.00 | 75 | 1006.3 |
| 20260506024546 | 3 | 326 | 24.1 | 35.4 | 0.00 | 0.00 | 0.00 | 75 | 1006.2 |
| 20260506023032 | 3 | 333 | 27.4 | 38.6 | 0.00 | 0.00 | 0.00 | 74 | 1006.1 |
| 20260506021529 | 3 | 326 | 24.1 | 40.2 | 0.00 | 0.00 | 0.00 | 75 | 1005.9 |
| 20260506020029 | 3 | 332 | 24.1 | 37.0 | 0.00 | 0.00 | 0.00 | 73 | 1005.9 |
| 20260506014528 | 3 | 333 | 22.5 | 38.6 | 0.00 | 0.00 | 0.00 | 74 | 1005.8 |
| 20260506013020 | 3 | 355 | 22.5 | 32.2 | 0.00 | 0.00 | 0.00 | 74 | 1005.7 |
| 20260506011518 | 3 | 337 | 22.5 | 32.2 | 0.00 | 0.00 | 0.00 | 73 | 1005.5 |
| 20260506010017 | 3 | 330 | 24.1 | 40.2 | 0.00 | 0.00 | 0.00 | 73 | 1005.5 |
| 20260506004513 | 3 | 328 | 24.1 | 33.8 | 0.00 | 0.00 | 0.00 | 73 | 1005.4 |
| 20260506003014 | 3 | 358 | 22.5 | 32.2 | 0.00 | 0.00 | 0.00 | 74 | 1005.1 |
| 20260506001509 | 3 | 332 | 22.5 | 33.8 | 0.00 | 0.00 | 0.00 | 72 | 1005.0 |
| 20260506000007 | 4 | 332 | 19.3 | 38.6 | 0.00 | 0.00 | 0.00 | 72 | 1004.9 |
| 20260505234503 | 4 | 345 | 20.9 | 37.0 | 0.00 | 0.00 | 0.00 | 71 | 1004.8 |
| 20260505233100 | 4 | 347 | 19.3 | 40.2 | 0.00 | 0.00 | 0.00 | 72 | 1004.8 |
| 20260505231604 | 5 | 325 | 24.1 | 37.0 | 0.00 | 0.00 | 0.00 | 73 | 1004.7 |
| 20260505230100 | 5 | 320 | 29.0 | 37.0 | 0.00 | 0.00 | 0.00 | 71 | 1004.6 |
| 20260505224553 | 5 | 349 | 20.9 | 29.0 | 0.00 | 0.00 | 0.00 | 71 | 1004.6 |
| 20260505223047 | 5 | 334 | 24.1 | 33.8 | 0.00 | 0.00 | 0.00 | 69 | 1004.5 |
| 20260505221545 | 5 | 337 | 19.3 | 32.2 | 0.00 | 0.00 | 0.00 | 70 | 1004.4 |
| 20260505220043 | 5 | 330 | 14.5 | 29.0 | 0.00 | 0.00 | 0.00 | 72 | 1004.3 |
| 20260505214542 | 5 | 326 | 16.1 | 30.6 | 0.00 | 0.00 | 0.00 | 70 | 1004.2 |
| 20260505213051 | 5 | 337 | 16.1 | 27.4 | 0.00 | 0.00 | 0.00 | 71 | 1004.2 |
| 20260505211537 | 5 | 330 | 17.7 | 29.0 | 0.00 | 0.00 | 0.00 | 70 | 1004.1 |
| 20260505210035 | 5 | 347 | 16.1 | 27.4 | 0.00 | 0.00 | 0.00 | 72 | 1004.0 |
| 20260505204532 | 5 | 345 | 17.7 | 27.4 | 0.00 | 0.00 | 0.00 | 70 | 1003.9 |
| 20260505203030 | 5 | 341 | 17.7 | 35.4 | 0.00 | 0.00 | 0.00 | 69 | 1003.8 |
| 20260505201529 | 5 | 330 | 20.9 | 29.0 | 0.00 | 0.00 | 0.00 | 69 | 1003.7 |
| 20260505200029 | 5 | 326 | 19.3 | 29.0 | 0.00 | 0.00 | 0.00 | 72 | 1003.6 |
| 20260505194527 | 5 | 336 | 12.9 | 27.4 | 0.00 | 0.05 | 0.00 | 77 | 1003.4 |
| 20260505193024 | 5 | 267 | 4.8 | 14.5 | 0.00 | 0.05 | 0.00 | 75 | 1003.4 |
| 20260505191524 | 6 | 333 | 3.2 | 14.5 | 0.00 | 0.05 | 0.00 | 74 | 1003.3 |
| 20260505190023 | 6 | 305 | 3.2 | 19.3 | 0.00 | 0.05 | 0.00 | 73 | 1003.2 |
| 20260505184522 | 6 | 247 | 8.0 | 24.1 | 0.00 | 0.15 | 0.00 | 73 | 1003.2 |
| 20260505183120 | 6 | 274 | 8.0 | 22.5 | 0.00 | 0.15 | 0.00 | 74 | 1003.0 |
| 20260505181518 | 6 | 297 | 6.4 | 17.7 | 0.00 | 0.15 | 0.00 | 72 | 1002.9 |
| 20260505180038 | 6 | 304 | 9.7 | 17.7 | 0.00 | 0.15 | 0.00 | 71 | 1002.9 |
| 20260505174517 | 6 | 257 | 9.7 | 20.9 | 0.00 | 0.15 | 0.00 | 71 | 1002.8 |
| 20260505173015 | 6 | 298 | 6.4 | 19.3 | 0.00 | 0.15 | 0.00 | 69 | 1002.8 |
| 20260505171514 | 6 | 299 | 9.7 | 22.5 | 0.00 | 0.15 | 0.00 | 70 | 1002.8 |
| 20260505170013 | 7 | 270 | 8.0 | 24.1 | 0.00 | 0.15 | 0.00 | 71 | 1002.7 |
| 20260505164512 | 7 | 299 | 6.4 | 17.7 | 0.00 | 0.15 | 0.00 | 69 | 1002.7 |
| 20260505163010 | 7 | 269 | 8.0 | 22.5 | 0.00 | 0.15 | 0.00 | 67 | 1002.6 |
| 20260505161509 | 7 | 297 | 6.4 | 22.5 | 0.00 | 0.15 | 0.00 | 60 | 1002.6 |
| 20260505153010 | 7 | 284 | 17.7 | 32.2 | 0.00 | 0.15 | 0.00 | 58 | 1002.4 |
| 20260505151604 | 7 | 334 | 11.3 | 29.0 | 0.00 | 0.15 | 0.00 | 64 | 1002.4 |